Tracking 19575 objects as of 20-Feb-2019
HD Live streaming from Space Station
objects crossing your sky now

OPS 3148

Track OPS 3148 now!
OPS 3148 is classified as:


NORAD ID: 3889
Int'l Code: 1969-036A
Perigee: 31,968.5 km
Apogee: 39,538.4 km
Inclination: 8.2 °
Period: 1,434.0 minutes
Semi major axis: 42124 km
RCS: Unknown
Launch date: April 13, 1969
Source: United States (US)
Launch site: AIR FORCE EASTERN TEST RANGE (AFETR)
aabbcc
Your satellite tracking list
Your tracking list is empty




NASA's NSSDC Master Catalog

Two Line Element Set (TLE):
1 03889U 69036A   18358.19915034 0.00000000  00000-0  00000-0 0    02
2 03889   8.1660  65.7544 0898516 118.4231 250.9562  1.00415590    03
Source of the keplerian elements: McCants